Home   Weather   Plauen   Past weeks

Flag for Germany Past Weather in Plauen, Saxony, Germany — Yesterday and Last 2 Weeks

Now
64 °F

Sunny.


Feels Like: 64 °F
Forecast: 42 / 57 °F
Wind: 5 mph from Southeast

Location: Altenburg Nobitz

Current Time: Jun 21, 2018 at 6:46:33 am

Latest Report: Jun 21, 2018 at 6:20 am


Visibility: N/A

Pressure: 29.95 "Hg

Humidity: 78%

Dew Point: 57 °F

Location of PlauenLocation

Past Weather in Plauen — Graph

°F

Plauen Temperature Yesterday

Maximum temperature yesterday: 84 °F (at 2:50 pm)
Minimum temperature yesterday: 57 °F (at 2:20 am)
Average temperature yesterday: 72 °F

High & Low Weather Summary for the Past Weeks

 TemperatureHumidityPressure
High86 °F (Jun 9, 1:50 pm)100% (Jun 12, 4:20 am)30.24 "Hg (Jun 12, 4:20 am)
Low50 °F (Jun 15, 4:50 am)34% (Jun 16, 5:20 pm)29.80 "Hg (Jun 10, 4:50 pm)
Average66 °F69%29.98 "Hg
* Reported Jun 7 8:20 pm — Jun 21 5:50 am, Plauen. Weather by CustomWeather, © 2018

Note: Actual official high and low records may vary slightly from our data, if they occured in-between our weather recording intervals... More about our weather records

Advertising

Plauen Weather History for the Previous 24 Hours

Scroll right to see more
 ConditionsComfort  
Time TempWeatherWind HumidityBarometerVisibility
5:50 am
Thu, Jun 21
63 °FSunny.5 mph83%29.95 "HgN/A
5:20 am61 °FSunny.2 mph88%29.95 "HgN/A
4:50 am61 °FClear.2 mph88%29.98 "HgN/A
4:20 am63 °FClear.7 mph83%29.98 "HgN/A
3:50 am63 °FClear.6 mph83%29.98 "HgN/A
2:50 am63 °FClear.3 mph88%30.01 "HgN/A
2:20 am63 °FClear.3 mph88%30.01 "HgN/A
1:50 am64 °FClear.5 mph83%30.01 "HgN/A
1:20 am63 °FClear.1 mph88%30.01 "HgN/A
12:50 am66 °FPassing clouds.2 mph83%30.01 "HgN/A
12:20 am66 °FPassing clouds.2 mph83%30.01 "HgN/A
11:50 pm
Wed, Jun 20
68 °FPassing clouds.2 mph78%30.04 "HgN/A
11:20 pm68 °FPassing clouds.2 mph83%30.04 "HgN/A
10:50 pm68 °FPassing clouds.1 mph83%30.01 "HgN/A
10:20 pm72 °FPassing clouds.3 mph73%30.01 "HgN/A
9:50 pm72 °FPassing clouds.1 mph73%30.04 "Hg4 mi
9:20 pm75 °FScattered clouds.3 mph65%30.01 "HgN/A
8:50 pm77 °FSunny.3 mph61%30.01 "HgN/A
8:20 pm81 °FPassing clouds.2 mph51%30.04 "HgN/A
7:50 pm82 °FSunny.2 mph48%30.04 "Hg10 mi
7:20 pm84 °FPassing clouds.7 mph40%30.04 "HgN/A
6:50 pm84 °FPassing clouds.6 mph40%30.04 "HgN/A
6:20 pm84 °FPassing clouds.7 mph40%30.07 "HgN/A
5:50 pm84 °FPassing clouds.6 mph40%30.07 "HgN/A
5:20 pm84 °FPassing clouds.7 mph40%30.07 "HgN/A
4:50 pm82 °FPassing clouds.6 mph42%30.09 "HgN/A
4:20 pm82 °FPassing clouds.7 mph42%30.09 "HgN/A
3:50 pm82 °FPassing clouds.3 mph42%30.09 "HgN/A
3:20 pm82 °FPassing clouds.6 mph42%30.12 "HgN/A
2:50 pm84 °FPassing clouds.6 mph40%30.12 "HgN/A
2:20 pm82 °FSunny.10 mph42%30.12 "Hg10 mi
1:50 pm81 °FPassing clouds.6 mph45%30.15 "HgN/A
1:20 pm81 °FSunny.6 mph45%30.15 "Hg10 mi
12:50 pm79 °FScattered clouds.6 mph51%30.15 "HgN/A
12:20 pm79 °FScattered clouds.6 mph48%30.18 "HgN/A
11:50 am77 °FPassing clouds.8 mph51%30.18 "HgN/A
11:20 am75 °FPassing clouds.3 mph54%30.18 "HgN/A
10:50 am75 °FScattered clouds.3 mph57%30.21 "HgN/A
10:20 am73 °FPartly sunny.3 mph57%30.21 "HgN/A
9:50 am72 °FPartly sunny.5 mph65%30.21 "HgN/A
9:20 am70 °FPassing clouds.6 mph64%30.21 "HgN/A
8:20 am68 °FSunny.2 mph73%30.21 "Hg10 mi
7:50 am68 °FPassing clouds.3 mph69%30.24 "HgN/A
7:20 am66 °FSunny.1 mph78%30.24 "HgN/A
6:50 am61 °FScattered clouds.1 mph88%30.24 "HgN/A
6:20 am61 °FPartly sunny.1 mph88%30.24 "HgN/A
Weather by CustomWeather, © 2018

See weather overview